Погода в Жезказгане

Казахстан     47°52′21″N   67°26′50″E
темп.,
°C
ветер,
м/с
пор.,
м/с
влажн.,
%
обл.,
%
осадки,
мм/ч
давл.,
гПа
погр.,
м
19 января, ср
ср1900:00−13ссв47957 0.0 102785
03:00−14ссв58956 0.0 102696
06:00−15ссв59956 0.0 1026109
09:00−16ссв5119612 0.0 1026132
12:00−12ссв6139276 0.0 1025259
15:00−9св61288100 0.0 1025319
18:00−11ссв6128991 0.0 1025210
21:00−13ссв61292100 0.0 1026173
20 января, чт
чт2000:00−14ссв6119299 0.0 1026156
03:00−13ссв5109299 0.0 1026144
06:00−13ссв4791100 0.0 1027102
09:00−13св469280 0.0 102895
12:00−10св469424 0.0 1027138
15:00−7св349383 0.0 1026196
18:00−11ссв229886 0.1 102611
21:00−11св339892 0.1 102634
21 января, пт
пт2100:00−6всв2396100 0.1 102480
03:00−6всв2296100 0.1 102243
06:00−11всв339987 0.1 102233
09:00−10всв4898100 0.1 1022127
12:00−6всв599376 0.1 1021288
15:00−6всв5995100 0.0 1019267
18:00−7всв5995100 0.0 1020161
21:00−8всв51190100 0.0 1021192
22 января, сб
сб2200:00−8всв51188100 0.0 1021182
03:00−9всв5987100 0.0 1022126
06:00−10в4886100 0.0 1022123
09:00−11всв4985100 0.0 1022118
12:00−7в498699 0.0 1023229
15:00−5вюв4689100 0.0 1022235
18:00−8вюв3395100 0.0 102437
21:00−10юв2298100 0.0 102617
23 января, вс
вс2300:00−5ююв2396100 0.1 102593
03:00−5ююз3696100 0.1 1026211
06:00−6ююз3596100 0.1 1027165
09:00−6ю2496100 0.1 1028111
12:00−5ююз349393 0.1 1029222
15:00−5ююз349389 0.1 1029240
18:00−9юз119888 0.1 103010
21:00−10зюз009892 0.1 103110